Change the Weather History Date:

Thursday, November 13, 2014

  Actual Average Record
Temperature  
Mean Temperature 1 °F 40 °F  
Max Temperature 11 °F 58 °F 81 °F (1999)
Min Temperature -9 °F 24 °F -12 °F (1940)
Degree Days  
Heating Degree Days 64 25  
Month to date heating degree days 322 284  
Since 1 July heating degree days 648 794  
Cooling Degree Days 0 0  
Month to date cooling degree days 0 0  
Year to date cooling degree days 1002 897  
Moisture  
Dew Point 0 °F    
Average Humidity 82    
Maximum Humidity 90    
Minimum Humidity 73    
Precipitation  
Precipitation 0.05 in 0.02 in 0.35 in (1902)
Month to date precipitation 0.24 0.22  
Year to date precipitation 11.37 11.94  
Snow  
Snow 2.30 in 0.10 in 2.00 in (1920)
Month to date snowfall 5.4 1.6  
Since 1 July snowfall 5.4 3.2  
Since 1 September snowfall 5.4 3.2  
Snow Depth 5.00 in    
Sea Level Pressure  
Sea Level Pressure 30.47 in    
Wind  
Wind Speed 3 mph (ESE)    
Max Wind Speed 10 mph    
Max Gust Speed 12 mph    
Visibility 7 miles    
Events Snow    
T = Trace of Precipitation, MM = Missing Value Source: NWS Daily Summary

Daily Weather History Graph

Daily Weather History Graph

Search for Another Location

Airport or City:

Trip Planner

Search our weather history database for the weather conditions in past years. The results will help you decide how hot, cold, wet, or windy it might be!

Date:

Astronomy

Nov. 13, 2014 Rise Set
Actual Time 6:37 AM MST 4:46 PM MST
Civil Twilight 6:09 AM MST 5:15 PM MST
Nautical Twilight 5:37 AM MST 5:46 PM MST
Astronomical Twilight 5:06 AM MST 6:18 PM MST
Moon 11:04 PM MST (11/13) 12:00 PM MST (11/13)
Length of Visible Light 11h 06m
Length of Day
10h 09m
Waning Gibbous, 58% of the Moon is Illuminated
Nov 13
Waning Gibbous
Nov 14
Last Quarter
Nov 22
New
Nov 29
First Quarter
Dec 6
Full

Hourly Weather History & Observations

Time (MST) Temp. Windchill Dew Point Humidity Pressure Visibility Wind Dir Wind Speed Gust Speed Precip Events Conditions
12:16 AM 7.0 °F 0.1 °F 3.0 °F 84% 30.47 in 0.8 mi South 3.5 mph - 0.01 in Snow Light Snow
12:26 AM 6.1 °F -2.8 °F 3.0 °F 87% 30.46 in 1.0 mi South 4.6 mph - 0.02 in Snow Light Snow
12:39 AM 6.1 °F -2.8 °F 3.0 °F 87% 30.46 in 3.0 mi SSW 4.6 mph - 0.02 in Snow Light Snow
12:53 AM 7.0 °F -1.7 °F 3.0 °F 84% 30.69 in 4.0 mi South 4.6 mph - 0.02 in Snow Light Snow
1:18 AM 6.1 °F -2.8 °F 1.9 °F 83% 30.45 in 1.8 mi South 4.6 mph - 0.01 in Snow Light Snow
1:30 AM 6.1 °F -0.9 °F 3.0 °F 87% 30.45 in 1.0 mi South 3.5 mph - 0.02 in Snow Light Snow
1:53 AM 5.0 °F -2.1 °F 1.9 °F 87% 30.69 in 2.0 mi South 3.5 mph - 0.02 in Snow Light Snow
2:03 AM 5.0 °F - 1.0 °F 84% 30.45 in 4.0 mi Calm Calm - 0.00 in Snow Light Snow
2:38 AM 3.0 °F - -0.0 °F 87% 30.44 in 10.0 mi Calm Calm - 0.01 in   Scattered Clouds
2:53 AM 1.0 °F - -2.0 °F 87% 30.69 in 10.0 mi Calm Calm - 0.01 in   Clear
3:53 AM -7.1 °F - -9.9 °F 87% 30.72 in 10.0 mi Calm Calm - N/A   Clear
4:53 AM -8.0 °F -21.0 °F -11.0 °F 86% 30.71 in 10.0 mi ENE 5.8 mph - N/A   Clear
5:20 AM -6.0 °F -20.1 °F -9.0 °F 87% 30.41 in 10.0 mi NE 6.9 mph - N/A   Mostly Cloudy
5:45 AM -2.0 °F -10.1 °F -6.0 °F 83% 30.41 in 10.0 mi ENE 3.5 mph - N/A   Overcast
5:53 AM -0.0 °F - -4.0 °F 83% 30.69 in 10.0 mi Calm Calm - N/A   Overcast
6:53 AM 1.0 °F - -2.9 °F 83% 30.69 in 6.0 mi Calm Calm - N/A   Overcast
7:29 AM 1.0 °F - -2.9 °F 83% 30.42 in 2.5 mi Calm Calm - N/A   Overcast
7:48 AM 1.4 °F - -2.2 °F 85% 30.42 in 4.0 mi Calm Calm - N/A   Overcast
7:53 AM 1.0 °F - -2.0 °F 87% 30.70 in 2.0 mi Calm Calm - N/A   Overcast
8:01 AM 1.9 °F - -0.9 °F 88% 30.42 in 1.8 mi Calm Calm - N/A   Overcast
8:12 AM 1.0 °F -6.7 °F -2.9 °F 83% 30.42 in 2.5 mi ESE 3.5 mph - 0.00 in Snow Light Snow
8:43 AM 1.9 °F - -2.0 °F 83% 30.40 in 1.5 mi Calm Calm - 0.00 in Snow Light Snow
8:53 AM 3.0 °F - -2.0 °F 80% 30.66 in 2.5 mi Calm Calm - 0.00 in Snow Light Snow
9:11 AM 3.9 °F -3.4 °F -0.9 °F 80% 30.39 in 4.0 mi North 3.5 mph - 0.00 in Snow Light Snow
9:53 AM 5.0 °F -2.1 °F -0.0 °F 80% 30.63 in 4.0 mi East 3.5 mph - 0.00 in   Haze
10:53 AM 7.0 °F -1.7 °F 1.0 °F 77% 30.61 in 4.0 mi East 4.6 mph - N/A   Haze
11:53 AM 8.1 °F -3.2 °F 1.9 °F 76% 30.55 in 3.0 mi East 6.9 mph - 0.00 in   Haze
12:38 PM 8.1 °F -3.2 °F 1.9 °F 76% 30.29 in 10.0 mi ESE 6.9 mph - N/A   Overcast
12:53 PM 8.1 °F -4.3 °F 1.9 °F 76% 30.51 in 10.0 mi SE 8.1 mph - N/A   Overcast
1:53 PM 9.0 °F -2.2 °F 3.0 °F 77% 30.49 in 6.0 mi East 6.9 mph - N/A   Haze
2:21 PM 10.9 °F 0.2 °F 3.9 °F 73% 30.24 in 9.0 mi East 6.9 mph - N/A   Overcast
2:48 PM 10.4 °F 0.8 °F 3.2 °F 73% 30.23 in 10.0 mi Variable 5.8 mph - N/A   Mostly Cloudy
2:53 PM 10.0 °F -0.9 °F 3.9 °F 76% 30.48 in 10.0 mi ESE 6.9 mph - N/A   Mostly Cloudy
3:19 PM 10.0 °F -0.9 °F 3.0 °F 73% 30.21 in 10.0 mi East 6.9 mph - N/A   Scattered Clouds
3:40 PM 10.0 °F -0.9 °F 3.0 °F 73% 30.22 in 10.0 mi ENE 6.9 mph - N/A   Mostly Cloudy
3:53 PM 10.0 °F -0.9 °F 3.0 °F 73% 30.49 in 10.0 mi ENE 6.9 mph - N/A   Overcast
4:33 PM 8.1 °F -2.0 °F 3.0 °F 80% 30.22 in 8.0 mi ENE 5.8 mph - N/A   Overcast
4:53 PM 9.0 °F 0.6 °F 3.0 °F 77% 30.50 in 6.0 mi ENE 4.6 mph - N/A   Haze
5:50 PM 8.6 °F - 1.4 °F 73% 30.21 in 10.0 mi Calm Calm - N/A   Overcast
5:53 PM 9.0 °F - 1.9 °F 73% 30.46 in 10.0 mi Calm Calm - N/A   Overcast
6:53 PM 9.0 °F 2.4 °F 3.0 °F 77% 30.45 in 8.0 mi SSW 3.5 mph - N/A   Overcast
7:53 PM 9.0 °F - 3.9 °F 80% 30.43 in 8.0 mi Calm Calm - 0.00 in   Overcast
8:53 PM 9.0 °F 2.4 °F 3.9 °F 80% 30.41 in 9.0 mi West 3.5 mph - N/A   Overcast
9:53 PM 10.0 °F 1.8 °F 5.0 °F 80% 30.37 in 10.0 mi West 4.6 mph - N/A   Overcast
10:53 PM 10.0 °F 3.6 °F 5.0 °F 80% 30.32 in 10.0 mi West 3.5 mph - N/A   Overcast
11:53 PM 9.0 °F - 5.0 °F 84% 30.30 in 10.0 mi Calm Calm - N/A   Overcast